Regional Weather Roundup
Issued by NWS

Home | Current Version | Previous Version | Text Only | Print | Product List | Glossary On
Versions: 1 2 3 4 5 6 7 8 9 10 11 12 13 14 15 16 17 18 19 20 21 22 23 24 25 26 27 28 29 30 31 32 33 34 35 36 37 38 39 40 41 42 43 44 45 46 47 48 49 50
000
ASUS43 KDMX 290406
RWRIA

WEATHER ROUNDUP FOR IOWA
NATIONAL WEATHER SERVICE DES MOINES IA
1100 PM CDT WED JUN 28 2017

NOTE: "FAIR" INDICATES FEW OR NO CLOUDS BELOW 12,000 FEET WITH NO
SIGNIFICANT WEATHER AND/OR OBSTRUCTIONS TO VISIBILITY.

* - THESE STATIONS ARE NOT NWS STATIONS...THUS NOT UNDER NWS
QUALITY CONTROL.  THEY ALSO DO NOT REPORT WEATHER SUCH
AS PRECIPITATION OR FOG.

IAZ001>003-012>014-020>022-031>034-043>046-290500-
   NORTHWEST IOWA

CITY           SKY/WX    TMP DP  RH WIND       PRES   REMARKS
CARROLL *      PTCLDY    70  68  94 S6        29.69R
CHEROKEE *     CLEAR     70  65  83 CALM      29.69S
DENISON *      CLEAR     70  68  94 SE5       29.71S
LE MARS *      CLEAR     68  63  83 CALM      29.70R
ORANGE CITY *  CLEAR     72  63  73 CALM      29.70R
SHELDON *      CLEAR     68  63  83 CALM      29.68R
SIOUX CITY     CLEAR     71  66  84 CALM      29.68R
SPENCER        CLEAR     70  65  84 NW3       29.69R
STORM LAKE *   CLEAR     72  64  78 W8        29.70S
$$

IAZ055>058-069>071-079>083-090>094-290500-
   SOUTHWEST IOWA

CITY           SKY/WX    TMP DP  RH WIND       PRES   REMARKS
ATLANTIC *     CLOUDY    68  66  94 SW5       29.70S
AUDUBON *      CLEAR     70  66  88 S5        29.72R
CLARINDA *     CLOUDY    72  72 100 CALM      29.73R
COUNCIL BLFS * CLEAR     77  63  61 CALM      29.69S
CRESTON *      CLOUDY    68  68 100 S9        29.74R
HARLAN  *      CLEAR     72  70  94 S5        29.73S
LAMONI         CLOUDY    68  64  87 SW8G26    29.71F
RED OAK *      MOCLDY    70  68  94 CALM      29.70S
SHENANDOAH *   MOCLDY    72  70  94 CALM      29.70R
$$

IAZ047>049-059>061-072>074-084-290500-
   CENTRAL IOWA

CITY           SKY/WX    TMP DP  RH WIND       PRES   REMARKS
AMES           CLOUDY    68  66  93 S5        29.68S
ANKENY *       CLOUDY    70  64  83 S6        29.70S
BOONE *        PTCLDY    68  64  88 SW5       29.68F
CHARITON *     CLOUDY    70  64  83 SW14G21   29.72R
DES MOINES     CLOUDY    71  65  81 SW9       29.69R
GRINNELL*      MOCLDY    72  63  74 SW9       29.71F
KNOXVILLE *    CLOUDY    70  64  83 SW13      29.70R
MARSHALLTOWN   MOCLDY    67  65  93 S8        29.68F
NEWTON *       CLOUDY    70  64  83 S7        29.70F
PELLA *        CLOUDY    71  64  78 SW13      29.71S
PERRY *          N/A     68  67  95 W3        29.68F
$$

IAZ004>006-015-016-023>025-035-036-290500-
   NORTH CENTRAL IOWA

CITY           SKY/WX    TMP DP  RH WIND       PRES   REMARKS
ALGONA *       MOCLDY    72  68  88 W8        29.68R
CLARION *        N/A     70  70 100 S13       29.68R
ESTHERVILLE    CLEAR     68  67  96 NW5       29.68R
FORT DODGE *   CLEAR     70  64  83 CALM      29.69R
MASON CITY     LGT RAIN  70  67  90 NW10G22   29.70R
FOREST CITY *    N/A     72  61  68 NE5       29.68R
WEBSTER CITY * CLEAR     70  68  94 S9        29.66S
IOWA FALLS *     N/A     68  65  91 S7        29.70R
$$

IAZ007>011-017>019-026>030-037>042-050>054-066-290500-
   NORTHEAST IOWA

CITY           SKY/WX    TMP DP  RH WIND       PRES   REMARKS
CEDAR RAPIDS   CLOUDY    68  68 100 S5        29.68F
CHARLES CITY * CLEAR     68  68 100 SW9G16    29.67R
CLINTON *      CLOUDY    76  67  73 S12       29.71S
DECORAH *      MOCLDY    68  63  83 NW10G21   29.67R
DUBUQUE        CLOUDY    74  68  81 W21G32    29.67F
MONTICELLO *   CLOUDY    72  66  83 SW10      29.65R
OELWEIN *      CLOUDY    68  63  83 SW8G17    29.67R
WATERLOO       CLOUDY    67  61  81 W5        29.65S
$$

IAZ064-065-067-068-078-290500-
   EAST CENTRAL IOWA

CITY           SKY/WX    TMP DP  RH WIND       PRES   REMARKS
IOWA CITY      CLOUDY    76  69  79 S3        29.71F
MT. PLEASANT * CLOUDY    77  56  48 S25G32    29.66R
MUSCATINE *    CLOUDY    81  68  65 SW10      29.71S HX  83
QUAD CITIES    CLOUDY    80  65  59 SW10      29.72R HX  82
$$

IAZ062-063-075>077-085>089-095>099-290500-
   SOUTHEAST IOWA

CITY           SKY/WX    TMP DP  RH WIND       PRES   REMARKS
BURLINGTON     TSTM      74  69  85 S32G47    29.72S
FAIRFIELD *    CLOUDY    77  63  61 SW21G32   29.71R
FORT MADISON * RAIN      73  68  83 S18G31    29.78
KEOKUK *       CLOUDY    72  70  94 S14G22    29.80F FOG
OSKALOOSA *      N/A     72  63  73 SW9       29.73R
CENTERVILLE *    N/A     68  64  88 S17G26    29.79R
OTTUMWA        CLOUDY    75  62  64 SW13G21   29.71R
WASHINGTON *   MOCLDY    77  68  73 SW7       29.71S
$$

ABBREVIATIONS USED IN REMARKS
   TC - TEMPERATURES IN CELSIUS
  WCI - WIND CHILL INDEX
   HX - HEAT INDEX
  VSB - VISIBILITY
$$




USA.gov is the U.S. government's official web portal to all federal, state and local government web resources and services.